Regional Weather Roundup
Issued by NWS Charleston, SC

Home | Current Version | Previous Version | Text Only | Print | Product List | Glossary On
Versions: 1 2 3 4 5 6 7 8 9 10 11 12 13 14 15 16 17 18 19 20 21 22 23 24 25 26 27 28 29 30 31 32 33 34 35 36 37 38 39 40 41 42 43 44 45 46 47 48 49 50
000
ASUS42 KCHS 251427
RWRCHS

REGIONAL WEATHER ROUNDUP
NATIONAL WEATHER SERVICE CHARLESTON SC
1000 AM EDT THU MAY 25 2017

NOTE: "FAIR" INDICATES FEW OR NO CLOUDS BELOW 12,000 FEET WITH NO
SIGNIFICANT WEATHER AND/OR OBSTRUCTIONS TO VISIBILITY.

NOT ALL STATIONS ARE QUALITY CONTROLLED. USE DATA WITH CAUTION...
ESPECIALLY DEWPOINT OBSERVATIONS.

SCZ027-030-031-034>040-042>050-251500-
...SOUTHEAST SOUTH CAROLINA...

CITY           SKY/WX    TMP DP  RH WIND       PRES   REMARKS
N CHARLESTON   MOSUNNY   71  56  58 W13G18    29.70S
WATERFRONT PRK   N/A     69  60  73 W7G15     29.69S
JOHNS ISLAND   FAIR      72  55  56 SW14G23   29.71S
PINOPOLIS        N/A     66  63  88 SW13      29.61R
MONCKS CORNER  FAIR      68  57  68 SW13G18   29.68F
SUMMERVILLE    FAIR      68  57  68 SW7       29.71F
BEAUFORT MCAS  PTSUNNY   71  59  65 SW16      29.73R
BEAUFORT ARPT  FAIR      70  55  60 SW10G21   29.73R
HILTON HEAD IS PTSUNNY   68  57  68 SW14G21   29.75R
WALTERBORO     SUNNY     70  55  60 W14       29.71S
ALLENDALE      PTSUNNY   68  59  73 SW8       29.71R

...SOUTHERN MIDLANDS AND PEE DEE...

CITY           SKY/WX    TMP DP  RH WIND       PRES   REMARKS
GEORGETOWN     FAIR      72  57  60 SW20G26   29.69S
KINGSTREE      FAIR      70  54  56 SW14      29.67S
ORANGEBURG     PTSUNNY   65  57  75 W13       29.69R
BARNWELL       FAIR      68  59  73 SW12G18   29.70S
AIKEN          CLOUDY    64  55  72 W13       29.73R
MANNING        FAIR      70  59  68 MISG      29.67F
COLUMBIA       MOSUNNY   70  55  59 W15G23    29.66R
SUMTER         SUNNY     68  55  62 SW13G20   29.63S
FLORENCE       MOSUNNY   69  55  60 W18G25    29.64R
MYRTLE BEACH   MOSUNNY   70  61  73 SW16      29.67R
N MYRTLE BEACH CLOUDY    72  61  68 SW14G22   29.65R

$$

GAZ063-065-086>088-099>101-113>116-118-119-134>141-150-251500-
...SOUTHEAST GEORGIA...

CITY           SKY/WX    TMP DP  RH WIND       PRES   REMARKS
SAVANNAH ARPT  MOSUNNY   73  56  54 W14G23    29.75R
HUNTER AAF     PTSUNNY   69  64  86 SW9       29.73R
FORT STEWART   MOSUNNY   69  56  63 SW12      29.74R
STATESBORO     MOSUNNY   68  57  68 W15G22    29.75R
SYLVANIA       SUNNY     67  58  72 W8G16     29.74S
CLAXTON        FAIR      68  61  78 SW9       29.76R

...CSRA...CENTRAL AND FAR SOUTHEAST GEORGIA...

CITY           SKY/WX    TMP DP  RH WIND       PRES   REMARKS
THOMSON        PTSUNNY   64  54  68 NW10G18   29.78R
AUGUSTA-BUSH   PTSUNNY   67  59  75 W10       29.71R
AUGUSTA-DANIEL CLOUDY    65  55  70 VRB6      29.72R
SWAINSBORO     PTSUNNY   64  55  72 W14G23    29.77R
VIDALIA        SUNNY     68  55  64 W15G22    29.77R
EASTMAN        PTSUNNY   66  46  48 W10G18    29.82R
HAZLEHURST     FAIR      69  56  64 W9        29.78R
ALMA           SUNNY     68  54  60 W15G21    29.78R
WAYCROSS       MOSUNNY   73  58  60 W12G18    29.80S
JESUP          FAIR      72  54  53 W7G16     29.78S
BAXLEY         FAIR      68  59  73 W8G18     29.79R
BRUNSWICK      MOSUNNY   72  61  68 W15G22    29.80R
SAINT SIMONS   MOSUNNY   71  60  68 SW10      29.78S

$$

SCZ027-028-034-036>038-045-046-048>050-GAZ119-141-251500-
...LAKE AND SUPPLEMENTAL COASTAL OBSERVATIONS...

STATION/POSITION TIME  TEMP    WIND        PRES    WAVE   SWELL
                       AIR SEA DIR/SP/G            HT/PER HT/PER/DIR
                 (UTC) (F)     (DEG/KT/KT) (MB)    (FT/S) (FT/S/D)
WINYAH BAY       1345   69     240/  8     1005.0R
LAKE MURRAY      1420   66     270/ 15/ 19 1004.1R
ACE BASIN NERRS  1345   69     230/  4     1007.0R
FORT PULASKI     1400   69     250/  8/ 12 1007.3
SAPELO ISLAND    1400   71     240/ 12     1008.0

$$

ANZ835-935-AMZ111-154-330-350-352-354-370-450-454-472-251500-
...C-MAN AND BUOY OBSERVATIONS...

STATION/POSITION TIME  TEMP    WIND        PRES    WAVE   SWELL
                       AIR SEA DIR/SP/G            HT/PER HT/PER/DIR
                 (UTC) (F)     (DEG/KT/KT) (MB)    (FT/S) (FT/S/D)
BUOY 41004       1410   73 76  250/ 21/ 29 1006.0
BUOY 41008       1350   70 77  240/ 16/ 19 1007.5R   4/ 7   2/110/ 7
FOLLY BEACH CMAN 1400   71     240/ 14/ 19 1006.6F
CAPERS NEARSHORE 1408   75 77  250/ 19/ 25 1005.2F
FRIPP NEARSHORE  1408   70 77  240/ 17/ 23 1005.9F


STATION/POSITION TIME  TEMP    WIND        PRES    WAVE   SWELL
                       AIR SEA DIR/SP/G            HT/PER HT/PER/DIR
                 (UTC) (F)     (DEG/KT/KT) (MB)    (FT/S) (FT/S/D)
5E ST. MARYS GA  1400      78                N/A     3/ 7
FRYING PAN BUOY  1410   74 76  240/ 25/ 33 1004.8
BUOY 41025       1350   77 78  230/ 19/ 23 1002.8R   8/ 7
CAPE LOOKOUT NC  1400   76     220/ 18/ 24 1002.5R
BUOY 41002       1350   77 76  200/ 23/ 27 1009.3R  10/ 8
BUOY 41010       1410   77 79  250/ 17/ 23 1009.9
ST AUGUSTINE FL  1400   72 76  280/ 11/ 15 1010.8R


$$




USA.gov is the U.S. government's official web portal to all federal, state and local government web resources and services.